KC5AYO Weather Reports


Display with metric or nautical units.
time (UTC)temp
F
wind
direction
speed
MPH
gust
MPH
rain 1hr
in
rain 24hr
in
rain mn
in
humidity
%
barometer
mb
20260902161536 90 67 0.0 3.0 0.00 0.00 0.00 65 1016.3
20260902161035 90 134 0.0 2.0 0.00 0.00 0.00 64 1016.3
20260902160533 89 273 0.0 3.0 0.00 0.00 0.00 68 1016.3
20260902160032 89 88 0.0 3.0 0.00 0.00 0.00 66 1016.2
20260902155532 88 184 0.0 2.0 0.00 0.00 0.00 69 1016.3
20260902155030 88 298 0.0 2.0 0.00 0.00 0.00 68 1016.3
20260902154529 87 327 0.0 3.0 0.00 0.00 0.00 67 1016.3
20260902154028 87 112 1.0 3.0 0.00 0.00 0.00 66 1016.3
20260902153526 87 315 0.0 3.0 0.00 0.00 0.00 68 1016.4
20260902153025 87 143 0.0 3.0 0.00 0.00 0.00 68 1016.4
20260902152524 86 138 1.0 3.0 0.00 0.00 0.00 68 1016.4
20260902152126 86 171 0.0 3.0 0.00 0.00 0.00 73 1016.4
20260902151522 86 198 0.0 3.0 0.00 0.00 0.00 71 1016.3
20260902151021 86 196 1.0 3.0 0.00 0.00 0.00 71 1016.4
20260902150519 86 132 0.0 4.0 0.00 0.00 0.00 71 1016.4
20260902150019 85 273 0.0 4.0 0.00 0.00 0.00 73 1016.4
20260902145518 85 305 0.0 3.0 0.00 0.00 0.00 73 1016.5
20260902145018 85 161 0.0 4.0 0.00 0.00 0.00 73 1016.5
20260902144515 84 346 0.0 4.0 0.00 0.00 0.00 73 1016.5
20260902144014 84 153 0.0 2.0 0.00 0.00 0.00 76 1016.5
20260902143512 84 151 0.0 2.0 0.00 0.00 0.00 76 1016.6
20260902143011 83 291 0.0 2.0 0.00 0.00 0.00 76 1016.6
20260902142511 83 214 0.0 3.0 0.00 0.00 0.00 76 1016.6
20260902142009 83 175 0.0 3.0 0.00 0.00 0.00 78 1016.7
20260902141508 82 302 0.0 0.0 0.00 0.00 0.00 79 1016.6
20260902141010 82 194 0.0 0.0 0.00 0.00 0.00 80 1016.6
20260902140507 82 252 0.0 0.0 0.00 0.00 0.00 78 1016.6
20260902140006 82 199 0.0 0.0 0.00 0.00 0.00 77 1016.7
20260902135507 81 205 0.0 0.0 0.00 0.00 0.00 80 1016.6
20260902135008 81 205 0.0 0.0 0.00 0.00 0.00 81 1016.7
20260902134504 81 208 0.0 0.0 0.00 0.00 0.00 80 1016.6
20260902134002 80 223 0.0 0.0 0.00 0.00 0.00 81 1016.7
20260902133600 80 182 0.0 0.0 0.00 0.00 0.00 82 1016.7
20260902133107 79 133 0.0 0.0 0.00 0.00 0.00 84 1016.8
20260902132558 79 161 0.0 0.0 0.00 0.00 0.00 84 1016.7
20260902132102 79 161 0.0 0.0 0.00 0.00 0.00 83 1016.7
20260902131557 78 160 0.0 0.0 0.00 0.00 0.00 84 1016.8
20260902131057 78 160 0.0 0.0 0.00 0.00 0.00 85 1016.7
20260902130555 78 160 0.0 0.0 0.00 0.00 0.00 85 1016.8
20260902125556 77 160 0.0 0.0 0.00 0.00 0.00 86 1016.8
20260902125056 76 160 0.0 0.0 0.00 0.00 0.00 86 1016.7
20260902124555 76 160 0.0 0.0 0.00 0.00 0.00 87 1016.7
20260902124056 76 160 0.0 0.0 0.00 0.00 0.00 87 1016.7
20260902123556 76 160 0.0 0.0 0.00 0.00 0.00 87 1016.8
20260902123056 75 160 0.0 0.0 0.00 0.00 0.00 88 1016.7
20260902122553 75 160 0.0 0.0 0.00 0.00 0.00 88 1016.7
20260902122052 75 160 0.0 0.0 0.00 0.00 0.00 88 1016.8
20260902121553 74 160 0.0 0.0 0.00 0.00 0.00 88 1016.7
20260902121051 74 160 0.0 0.0 0.00 0.00 0.00 89 1016.7
20260902120554 74 160 0.0 0.0 0.00 0.00 0.00 89 1016.5
20260902120051 74 160 0.0 0.0 0.00 0.00 0.00 90 1016.5
20260902115552 74 160 0.0 0.0 0.00 0.00 0.00 89 1016.5
20260902115049 73 160 0.0 0.0 0.00 0.00 0.00 89 1016.4
20260902114549 73 160 0.0 0.0 0.00 0.00 0.00 90 1016.4
20260902114050 73 160 0.0 0.0 0.00 0.00 0.00 90 1016.4
20260902113546 73 160 0.0 0.0 0.00 0.00 0.00 90 1016.3
20260902113048 73 160 0.0 0.0 0.00 0.00 0.00 90 1016.1
20260902112545 73 171 0.0 0.0 0.00 0.00 0.00 90 1016.1
20260902112048 73 185 0.0 0.0 0.00 0.00 0.00 90 1016.1
20260902111544 73 185 0.0 0.0 0.00 0.00 0.00 89 1016.0
20260902111043 73 185 0.0 0.0 0.00 0.00 0.00 89 1015.9
20260902110543 74 185 0.0 0.0 0.00 0.00 0.00 89 1015.8
20260902110050 74 185 0.0 0.0 0.00 0.00 0.00 89 1015.9
20260902105541 74 185 0.0 0.0 0.00 0.00 0.00 88 1015.9
20260902105040 74 185 0.0 0.0 0.00 0.00 0.00 88 1015.8
20260902104554 74 185 0.0 0.0 0.00 0.00 0.00 88 1015.8
20260902104039 74 185 0.0 0.0 0.00 0.00 0.00 88 1015.9
20260902103537 74 185 0.0 0.0 0.00 0.00 0.00 87 1015.7
20260902103057 75 185 0.0 0.0 0.00 0.00 0.00 87 1015.8
20260902102537 75 185 0.0 0.0 0.00 0.00 0.00 87 1015.7
20260902102037 75 185 0.0 0.0 0.00 0.00 0.00 86 1015.7
20260902101537 75 185 0.0 0.0 0.00 0.00 0.00 86 1015.7
20260902101035 75 185 0.0 0.0 0.00 0.00 0.00 86 1015.7
20260902100535 75 185 0.0 0.0 0.00 0.00 0.00 86 1015.7
20260902100037 75 185 0.0 0.0 0.00 0.00 0.00 86 1015.6
20260902095534 75 185 0.0 0.0 0.00 0.00 0.00 85 1015.7
20260902095037 75 185 0.0 0.0 0.00 0.00 0.00 85 1015.7
20260902094536 76 185 0.0 0.0 0.00 0.00 0.00 85 1015.5
20260902094034 76 185 0.0 0.0 0.00 0.00 0.00 85 1015.5
20260902093533 75 185 0.0 0.0 0.00 0.00 0.00 85 1015.5
20260902093033 76 185 0.0 0.0 0.00 0.00 0.00 85 1015.5
20260902092533 76 185 0.0 0.0 0.00 0.00 0.00 85 1015.4
20260902092033 75 185 0.0 0.0 0.00 0.00 0.00 86 1015.5
20260902091533 75 185 0.0 0.0 0.00 0.00 0.00 86 1015.5
20260902091032 75 185 0.0 0.0 0.00 0.00 0.00 86 1015.4
20260902090532 75 185 0.0 0.0 0.00 0.00 0.00 86 1015.4
20260902090038 75 185 0.0 0.0 0.00 0.00 0.00 86 1015.4
20260902085531 75 185 0.0 0.0 0.00 0.00 0.00 86 1015.3
20260902085031 75 185 0.0 0.0 0.00 0.00 0.00 86 1015.4
20260902084538 76 185 0.0 0.0 0.00 0.00 0.00 86 1015.4
20260902084032 75 185 0.0 0.0 0.00 0.00 0.00 86 1015.3
20260902083533 75 185 0.0 0.0 0.00 0.00 0.00 86 1015.3
20260902083030 76 185 0.0 0.0 0.00 0.00 0.00 86 1015.2
20260902082531 76 185 0.0 0.0 0.00 0.00 0.00 86 1015.2
20260902082030 76 185 0.0 0.0 0.00 0.00 0.00 86 1015.1
20260902081530 76 185 0.0 0.0 0.00 0.00 0.00 86 1015.0
20260902081030 76 185 0.0 0.0 0.00 0.00 0.00 86 1015.1
20260902080529 76 185 0.0 0.0 0.00 0.00 0.00 86 1015.0
20260902080030 76 185 0.0 0.0 0.00 0.00 0.00 86 1015.0
20260902075529 76 185 0.0 0.0 0.00 0.00 0.00 86 1015.1
20260902075029 75 185 0.0 0.0 0.00 0.00 0.00 87 1015.1
20260902074529 75 185 0.0 0.0 0.00 0.00 0.00 87 1015.0
20260902074029 75 185 0.0 0.0 0.00 0.00 0.00 87 1015.1
20260902073527 75 185 0.0 0.0 0.00 0.00 0.00 88 1015.1
20260902073029 76 185 0.0 0.0 0.00 0.00 0.00 88 1015.1
20260902072526 76 185 0.0 0.0 0.00 0.00 0.00 88 1015.1
20260902072026 76 185 0.0 0.0 0.00 0.00 0.00 87 1015.0
20260902071526 76 185 0.0 0.0 0.00 0.00 0.00 86 1015.0
20260902071026 76 185 0.0 0.0 0.00 0.00 0.00 86 1014.9
20260902070525 76 185 0.0 0.0 0.00 0.00 0.00 86 1015.0
20260902070026 76 185 0.0 0.0 0.00 0.00 0.00 86 1014.9
20260902065527 76 185 0.0 0.0 0.00 0.00 0.00 86 1015.0
20260902065027 76 185 0.0 0.0 0.00 0.00 0.00 86 1015.0
20260902064525 76 185 0.0 0.0 0.00 0.00 0.00 86 1015.1
20260902064027 76 185 0.0 0.0 0.00 0.00 0.00 86 1015.2
20260902063523 76 185 0.0 0.0 0.00 0.00 0.00 86 1015.2
20260902063043 76 185 0.0 0.0 0.00 0.00 0.00 86 1015.1
20260902062527 76 185 0.0 0.0 0.00 0.00 0.00 86 1015.2
20260902062023 76 185 0.0 0.0 0.00 0.00 0.00 86 1015.1
20260902061531 76 185 0.0 0.0 0.00 0.00 0.00 87 1015.0
20260902061023 76 185 0.0 0.0 0.00 0.00 0.00 86 1015.1
20260902060522 76 185 0.0 0.0 0.00 0.00 0.00 87 1015.1
20260902060123 76 185 0.0 0.0 0.00 0.00 0.00 87 1015.0
20260902055521 76 185 0.0 0.0 0.00 0.00 0.00 87 1015.0
20260902055021 76 185 0.0 0.0 0.00 0.00 0.00 87 1014.9
20260902054523 76 185 0.0 0.0 0.00 0.00 0.00 87 1015.0
20260902054020 76 185 0.0 0.0 0.00 0.00 0.00 87 1014.9
20260902053522 76 185 0.0 0.0 0.00 0.00 0.00 86 1014.9
20260902053020 77 185 0.0 0.0 0.00 0.00 0.00 87 1014.9
20260902052519 77 185 0.0 0.0 0.00 0.00 0.00 86 1014.9
20260902052018 77 185 0.0 0.0 0.00 0.00 0.00 86 1014.9
20260902051518 77 185 0.0 0.0 0.00 0.00 0.00 86 1014.8
20260902051018 77 185 0.0 0.0 0.00 0.00 0.00 86 1014.9
20260902050518 77 185 0.0 0.0 0.00 0.00 0.00 87 1014.8
20260902050021 77 185 0.0 0.0 0.00 0.00 0.00 87 1014.8
20260902045516 77 185 0.0 0.0 0.00 0.00 0.00 87 1014.9
20260902045016 77 185 0.0 0.0 0.00 0.00 0.00 87 1014.9
20260902044531 77 185 0.0 0.0 0.00 0.00 0.00 86 1014.9
20260902044015 77 185 0.0 0.0 0.00 0.00 0.00 86 1014.9
20260902043516 78 185 0.0 0.0 0.00 0.00 0.00 86 1014.9
20260902043014 78 185 0.0 0.0 0.00 0.00 0.00 86 1014.9
20260902042513 78 185 0.0 0.0 0.00 0.00 0.00 86 1014.9
20260902042016 78 185 0.0 0.0 0.00 0.00 0.00 85 1015.0
20260902041511 78 185 0.0 0.0 0.00 0.00 0.00 85 1015.0
20260902041010 79 185 0.0 0.0 0.00 0.00 0.00 84 1015.0
20260902040509 79 185 0.0 0.0 0.00 0.00 0.00 83 1015.0
20260902040009 79 185 0.0 0.0 0.00 0.00 0.00 83 1015.0
20260902035509 79 185 0.0 0.0 0.00 0.00 0.00 82 1015.0
20260902035008 80 185 0.0 0.0 0.00 0.00 0.00 82 1014.9
20260902034508 80 185 0.0 0.0 0.00 0.00 0.00 82 1014.9
20260902034008 80 185 0.0 0.0 0.00 0.00 0.00 83 1015.0
20260902033507 79 185 0.0 0.0 0.00 0.00 0.00 83 1014.9
20260902033007 79 185 0.0 0.0 0.00 0.00 0.00 84 1015.0
20260902032511 79 185 0.0 0.0 0.00 0.00 0.00 84 1014.9
20260902032007 80 185 0.0 0.0 0.00 0.00 0.00 83 1014.9
20260902031523 79 185 0.0 0.0 0.00 0.00 0.00 84 1015.0
20260902031007 79 185 0.0 0.0 0.00 0.00 0.00 84 1014.9
20260902030512 79 185 0.0 0.0 0.00 0.00 0.00 84 1014.9
20260902030006 79 185 0.0 0.0 0.00 0.00 0.00 84 1015.0
20260902025506 80 185 0.0 0.0 0.00 0.00 0.00 84 1015.0
20260902025008 80 185 0.0 0.0 0.00 0.00 0.00 84 1015.1
20260902024506 80 185 0.0 0.0 0.00 0.00 0.00 83 1015.1
20260902024007 80 185 0.0 0.0 0.00 0.00 0.00 83 1015.1
20260902023505 80 185 0.0 0.0 0.00 0.00 0.00 83 1015.0
20260902023014 80 185 0.0 0.0 0.00 0.00 0.00 83 1014.9
20260902022505 80 185 0.0 0.0 0.00 0.00 0.00 83 1014.9
20260902022008 80 185 0.0 0.0 0.00 0.00 0.00 83 1014.9
20260902021506 81 185 0.0 0.0 0.00 0.00 0.00 83 1015.0
20260902021005 81 185 0.0 0.0 0.00 0.00 0.00 83 1014.8
20260902020505 81 185 0.0 0.0 0.00 0.00 0.00 82 1014.8
20260902020005 81 185 0.0 0.0 0.00 0.00 0.00 82 1014.8
20260902015504 81 185 0.0 0.0 0.00 0.00 0.00 82 1014.7
20260902015007 81 185 0.0 0.0 0.00 0.00 0.00 82 1014.8
20260902014506 82 185 0.0 0.0 0.00 0.00 0.00 82 1014.8
20260902014003 82 185 0.0 0.0 0.00 0.00 0.00 81 1014.7
20260902013504 82 185 0.0 0.0 0.00 0.00 0.00 81 1014.7
20260902013003 82 185 0.0 0.0 0.00 0.00 0.00 80 1014.7
20260902012502 82 185 0.0 0.0 0.00 0.00 0.00 80 1014.6
20260902012002 83 185 0.0 0.0 0.00 0.00 0.00 80 1014.6
20260902011503 83 185 0.0 0.0 0.00 0.00 0.00 79 1014.5
20260902011005 83 185 0.0 0.0 0.00 0.00 0.00 80 1014.5
20260902010501 83 185 0.0 0.0 0.00 0.00 0.00 79 1014.4
20260902010001 83 185 0.0 0.0 0.00 0.00 0.00 79 1014.4
20260902005502 83 185 0.0 0.0 0.00 0.00 0.00 79 1014.3
20260902005003 83 185 0.0 0.0 0.00 0.00 0.00 80 1014.3
20260902004502 83 185 0.0 0.0 0.00 0.00 0.00 79 1014.3
20260902004003 84 185 0.0 0.0 0.00 0.00 0.00 79 1014.3
20260902003503 84 185 0.0 0.0 0.00 0.00 0.00 78 1014.3
20260902003001 84 185 0.0 0.0 0.00 0.00 0.00 76 1014.3
20260902002500 85 185 0.0 0.0 0.00 0.00 0.00 76 1014.3
20260902002102 85 185 0.0 0.0 0.00 0.00 0.00 75 1014.3
20260902001605 85 185 0.0 0.0 0.00 0.00 0.00 74 1014.3
20260902001059 85 185 0.0 0.0 0.00 0.00 0.00 74 1014.3
20260902000559 86 185 0.0 0.0 0.00 0.00 0.00 73 1014.3
20260902000100 86 185 0.0 0.0 0.00 0.00 0.00 72 1014.3
20260901235559 87 185 0.0 0.0 0.00 0.00 0.00 72 1014.3
20260901235058 88 185 0.0 0.0 0.00 0.00 0.00 70 1014.3
20260901234607 88 185 0.0 0.0 0.00 0.00 0.00 68 1014.3
20260901234104 89 174 0.0 0.0 0.00 0.00 0.00 66 1014.4
20260901233558 89 182 0.0 0.0 0.00 0.00 0.00 64 1014.3
20260901233057 89 198 0.0 0.0 0.00 0.00 0.00 64 1014.4
20260901232557 90 198 0.0 0.0 0.00 0.00 0.00 64 1014.5
20260901232102 90 180 0.0 2.0 0.00 0.00 0.00 63 1014.5
20260901231607 90 180 0.0 2.0 0.00 0.00 0.00 63 1014.4
20260901231057 90 144 0.0 2.0 0.00 0.00 0.00 63 1014.4
20260901230557 91 144 0.0 2.0 0.00 0.00 0.00 62 1014.4
20260901230108 91 133 0.0 2.0 0.00 0.00 0.00 60 1014.4
20260901225557 91 139 0.0 2.0 0.00 0.00 0.00 62 1014.3
20260901225056 91 156 0.0 2.0 0.00 0.00 0.00 60 1014.4
20260901224557 92 161 0.0 2.0 0.00 0.00 0.00 59 1014.3
20260901224100 92 178 0.0 2.0 0.00 0.00 0.00 60 1014.4
20260901223601 91 176 0.0 2.0 0.00 0.00 0.00 58 1014.4
20260901223056 92 170 0.0 2.0 0.00 0.00 0.00 58 1014.3
20260901222557 92 150 0.0 2.0 0.00 0.00 0.00 58 1014.3
20260901222057 92 227 0.0 2.0 0.00 0.00 0.00 60 1014.4
20260901221610 92 194 0.0 2.0 0.00 0.00 0.00 59 1014.3
20260901221055 92 116 0.0 2.0 0.00 0.00 0.00 58 1014.4
20260901220559 92 167 0.0 2.0 0.00 0.00 0.00 58 1014.4
20260901220057 92 270 0.0 0.0 0.00 0.00 0.00 61 1014.3
20260901215556 92 163 0.0 0.0 0.00 0.00 0.00 61 1014.3
20260901215055 92 281 0.0 2.0 0.00 0.00 0.00 58 1014.3
20260901214555 92 228 0.0 3.0 0.00 0.00 0.00 57 1014.3
20260901214054 92 220 0.0 2.0 0.00 0.00 0.00 56 1014.3
20260901213555 92 104 0.0 2.0 0.00 0.00 0.00 59 1014.3
20260901213055 92 299 0.0 3.0 0.00 0.00 0.00 57 1014.3
20260901212552 92 301 0.0 3.0 0.00 0.00 0.00 57 1014.3
20260901212053 92 297 0.0 3.0 0.00 0.00 0.00 58 1014.4
20260901211552 92 289 0.0 2.0 0.00 0.00 0.00 57 1014.4
20260901211052 92 299 0.0 2.0 0.00 0.00 0.00 58 1014.3
20260901210553 93 279 0.0 2.0 0.00 0.00 0.00 56 1014.4
20260901210051 93 150 0.0 2.0 0.00 0.00 0.00 59 1014.5
20260901205551 93 172 0.0 2.0 0.00 0.00 0.00 58 1014.5
20260901205052 93 201 0.0 2.0 0.00 0.00 0.00 57 1014.6
20260901204550 93 78 0.0 3.0 0.00 0.00 0.00 56 1014.6
20260901204049 93 279 0.0 3.0 0.00 0.00 0.00 58 1014.6
20260901203551 93 200 0.0 3.0 0.00 0.00 0.00 56 1014.7
20260901203055 93 136 0.0 2.0 0.00 0.00 0.00 57 1014.6
20260901202548 93 163 0.0 3.0 0.00 0.00 0.00 55 1014.7
20260901202051 93 299 0.0 3.0 0.00 0.00 0.00 54 1014.7
20260901201550 93 186 1.0 3.0 0.00 0.00 0.00 55 1014.8
20260901201047 93 254 0.0 3.0 0.00 0.00 0.00 57 1014.8
20260901200547 93 200 0.0 3.0 0.00 0.00 0.00 57 1014.8
20260901200047 93 302 0.0 2.0 0.00 0.00 0.00 56 1014.8
20260901195546 93 316 0.0 2.0 0.00 0.00 0.00 54 1014.8
20260901195045 94 264 0.0 3.0 0.00 0.00 0.00 56 1014.8
20260901194546 94 128 0.0 3.0 0.00 0.00 0.00 54 1014.9
20260901194044 94 336 0.0 3.0 0.00 0.00 0.00 54 1014.9
20260901193544 94 301 0.0 2.0 0.00 0.00 0.00 55 1015.0
20260901193044 93 236 0.0 3.0 0.00 0.00 0.00 55 1015.1
20260901192542 93 182 0.0 3.0 0.00 0.00 0.00 54 1015.1
20260901192042 94 306 0.0 4.0 0.00 0.00 0.00 54 1015.2
20260901191544 94 296 0.0 4.0 0.00 0.00 0.00 54 1015.1
20260901191042 93 138 0.0 3.0 0.00 0.00 0.00 53 1015.3
20260901190541 93 285 0.0 3.0 0.00 0.00 0.00 54 1015.2
20260901190042 93 304 0.0 3.0 0.00 0.00 0.00 56 1015.4
20260901185542 94 164 0.0 4.0 0.00 0.00 0.00 53 1015.4
20260901185041 93 9 0.0 4.0 0.00 0.00 0.00 54 1015.5
20260901184541 94 263 0.0 3.0 0.00 0.00 0.00 54 1015.5
20260901184042 93 94 0.0 4.0 0.00 0.00 0.00 54 1015.6
20260901183540 94 211 1.0 4.0 0.00 0.00 0.00 54 1015.6
20260901183059 93 167 0.0 3.0 0.00 0.00 0.00 59 1015.6
20260901182541 93 313 0.0 3.0 0.00 0.00 0.00 58 1015.6
20260901182040 93 299 0.0 2.0 0.00 0.00 0.00 58 1015.6
20260901181540 93 305 0.0 3.0 0.00 0.00 0.00 58 1015.7
20260901181039 93 300 1.0 3.0 0.00 0.00 0.00 56 1015.7
20260901180540 94 117 0.0 3.0 0.00 0.00 0.00 57 1015.7
20260901180038 93 178 0.0 3.0 0.00 0.00 0.00 57 1015.7
20260901175538 93 327 0.0 3.0 0.00 0.00 0.00 59 1015.7
20260901175037 93 155 0.0 2.0 0.00 0.00 0.00 58 1015.7
20260901174536 93 163 0.0 4.0 0.00 0.00 0.00 56 1015.9
20260901174036 93 317 0.0 4.0 0.00 0.00 0.00 60 1016.0
20260901173535 92 5 0.0 4.0 0.00 0.00 0.00 62 1016.0
20260901173037 92 186 1.0 5.0 0.00 0.00 0.00 59 1016.0
20260901172536 92 143 0.0 3.0 0.00 0.00 0.00 59 1016.0
20260901172033 92 251 0.0 3.0 0.00 0.00 0.00 62 1016.1
20260901171546 91 59 0.0 3.0 0.00 0.00 0.00 64 1016.1
20260901171034 91 182 0.0 4.0 0.00 0.00 0.00 62 1016.1
20260901170530 91 198 1.0 4.0 0.00 0.00 0.00 62 1016.1
20260901170042 91 225 0.0 3.0 0.00 0.00 0.00 63 1016.1
20260901165527 90 338 0.0 2.0 0.00 0.00 0.00 65 1016.2
20260901165026 90 67 0.0 2.0 0.00 0.00 0.00 63 1016.3
20260901164525 90 134 0.0 2.0 0.00 0.00 0.00 65 1016.3
20260901164025 90 306 0.0 2.0 0.00 0.00 0.00 64 1016.3
20260901163522 89 226 0.0 2.0 0.00 0.00 0.00 64 1016.4
20260901163027 89 219 0.0 2.0 0.00 0.00 0.00 69 1016.4
20260901162520 89 125 0.0 2.0 0.00 0.00 0.00 67 1016.4
20260901162020 88 308 0.0 2.0 0.00 0.00 0.00 64 1016.5